Pagrindinis puslapis
METAR-TAF:

METAR-TAF

Oro uostai :

Taos Regional Airport

Taos, Naujoji Meksika, Jungtinės Amerikos Valstijos

platuma: 36-27N, ilguma: 105-40W, Aukštis: 2161 m

Dabartinis oras

Ataskaita buvo paskelbta 1 valandą ir 0 minutes, ne 11:56 UTC
Ramus vėjas
Temperatūra -5°C
Drėgmė 63%
Slėgis 1025 hPa
Matomumas: 16.1 km
Giedras dangus

METAR: KSKX 301156Z AUTO 00000KT 10SM CLR M05/M11 A3026 RMK AO2 SLP245 T10501106 11017 21056 58002 FZRANO

Laikas: 05:56 (12:56 UTC)


TAF: trūkstamas

Orai ataskaitas ir orų prognozės (METAR, TAF).

turimą stotys yra geltonos ir raudonos taškus žemėlapyje.

Perkelti pele per norėdami pamatyti stoties vardą.

Tada spustelėkite, norėdami matyti oro stebėjimo ir prognozės.

Norėdami pakeisti žemėlapį: spustelėkite ant žalios mygtukų su juodo kryžiaus žemyn,; žalią mygtuką su brūkšneliu, jei norite nutolinti; arba žalių rodyklių gretimoms žemėlapius.


METAR-TAF: